Year,Month,Day,Hour,Minute,Value (Times are PST for insolation in W/m^2)
2017,10,10,00,00,0.00
2017,10,10,00,01,0.00
2017,10,10,00,02,0.00
2017,10,10,00,03,0.00
2017,10,10,00,04,0.00
2017,10,10,00,05,0.00
2017,10,10,00,06,0.00
2017,10,10,00,07,0.00
2017,10,10,00,08,0.00
2017,10,10,00,09,0.00
2017,10,10,00,10,0.00
2017,10,10,00,11,0.00
2017,10,10,00,12,0.00
2017,10,10,00,13,0.00
2017,10,10,00,14,0.00
2017,10,10,00,15,0.00
2017,10,10,00,16,0.00
2017,10,10,00,17,0.00
2017,10,10,00,18,0.00
2017,10,10,00,19,0.00
2017,10,10,00,20,0.00
2017,10,10,00,21,0.00
2017,10,10,00,22,0.00
2017,10,10,00,23,0.00
2017,10,10,00,24,0.00
2017,10,10,00,25,0.00
2017,10,10,00,26,0.00
2017,10,10,00,27,0.00
2017,10,10,00,28,0.00
2017,10,10,00,29,0.00
2017,10,10,00,30,0.00
2017,10,10,00,31,0.00
2017,10,10,00,32,0.00
2017,10,10,00,33,0.00
2017,10,10,00,34,0.00
2017,10,10,00,35,0.00
2017,10,10,00,36,0.00
2017,10,10,00,37,0.00
2017,10,10,00,38,0.00
2017,10,10,00,39,0.00
2017,10,10,00,40,0.00
2017,10,10,00,41,0.00
2017,10,10,00,42,0.00
2017,10,10,00,43,0.00
2017,10,10,00,44,0.00
2017,10,10,00,45,0.00
2017,10,10,00,46,0.00
2017,10,10,00,47,0.00
2017,10,10,00,48,0.00
2017,10,10,00,49,0.00
2017,10,10,00,50,0.00
2017,10,10,00,51,0.00
2017,10,10,00,52,0.00
2017,10,10,00,53,0.00
2017,10,10,00,54,0.00
2017,10,10,00,55,0.00
2017,10,10,00,56,0.00
2017,10,10,00,57,0.00
2017,10,10,00,58,0.00
2017,10,10,00,59,0.00
2017,10,10,01,00,0.00
2017,10,10,01,01,0.00
2017,10,10,01,02,0.00
2017,10,10,01,03,0.00
2017,10,10,01,04,0.00
2017,10,10,01,05,0.00
2017,10,10,01,06,0.00
2017,10,10,01,07,0.00
2017,10,10,01,08,0.00
2017,10,10,01,09,0.00
2017,10,10,01,10,0.00
2017,10,10,01,11,0.00
2017,10,10,01,12,0.00
2017,10,10,01,13,0.00
2017,10,10,01,14,0.00
2017,10,10,01,15,0.00
2017,10,10,01,16,0.00
2017,10,10,01,17,0.00
2017,10,10,01,18,0.00
2017,10,10,01,19,0.00
2017,10,10,01,20,0.00
2017,10,10,01,21,0.00
2017,10,10,01,22,0.00
2017,10,10,01,23,0.00
2017,10,10,01,24,0.00
2017,10,10,01,25,0.00
2017,10,10,01,26,0.00
2017,10,10,01,27,0.00
2017,10,10,01,28,0.00
2017,10,10,01,29,0.00
2017,10,10,01,30,0.00
2017,10,10,01,31,0.00
2017,10,10,01,32,0.00
2017,10,10,01,33,0.00
2017,10,10,01,34,0.00
2017,10,10,01,35,0.00
2017,10,10,01,36,0.00
2017,10,10,01,37,0.00
2017,10,10,01,38,0.00
2017,10,10,01,39,0.00
2017,10,10,01,40,0.00
2017,10,10,01,41,0.00
2017,10,10,01,42,0.00
2017,10,10,01,43,0.00
2017,10,10,01,44,0.00
2017,10,10,01,45,0.00
2017,10,10,01,46,0.00
2017,10,10,01,47,0.00
2017,10,10,01,48,0.00
2017,10,10,01,49,0.00
2017,10,10,01,50,0.00
2017,10,10,01,51,0.00
2017,10,10,01,52,0.00
2017,10,10,01,53,0.00
2017,10,10,01,54,0.00
2017,10,10,01,55,0.00
2017,10,10,01,56,0.00
2017,10,10,01,57,0.00
2017,10,10,01,58,0.00
2017,10,10,01,59,0.00
2017,10,10,02,00,0.00
2017,10,10,02,01,0.00
2017,10,10,02,02,0.00
2017,10,10,02,03,0.00
2017,10,10,02,04,0.00
2017,10,10,02,05,0.00
2017,10,10,02,06,0.00
2017,10,10,02,07,0.00
2017,10,10,02,08,0.00
2017,10,10,02,09,0.00
2017,10,10,02,10,0.00
2017,10,10,02,11,0.00
2017,10,10,02,12,0.00
2017,10,10,02,13,0.00
2017,10,10,02,14,0.00
2017,10,10,02,15,0.00
2017,10,10,02,16,0.00
2017,10,10,02,17,0.00
2017,10,10,02,18,0.00
2017,10,10,02,19,0.00
2017,10,10,02,20,0.00
2017,10,10,02,21,0.00
2017,10,10,02,22,0.00
2017,10,10,02,23,0.00
2017,10,10,02,24,0.00
2017,10,10,02,25,0.00
2017,10,10,02,26,0.00
2017,10,10,02,27,0.00
2017,10,10,02,28,0.00
2017,10,10,02,29,0.00
2017,10,10,02,30,0.00
2017,10,10,02,31,0.00
2017,10,10,02,32,0.00
2017,10,10,02,33,0.00
2017,10,10,02,34,0.00
2017,10,10,02,35,0.00
2017,10,10,02,36,0.00
2017,10,10,02,37,0.00
2017,10,10,02,38,0.00
2017,10,10,02,39,0.00
2017,10,10,02,40,0.00
2017,10,10,02,41,0.00
2017,10,10,02,42,0.00
2017,10,10,02,43,0.00
2017,10,10,02,44,0.00
2017,10,10,02,45,0.00
2017,10,10,02,46,0.00
2017,10,10,02,47,0.00
2017,10,10,02,48,0.00
2017,10,10,02,49,0.00
2017,10,10,02,50,0.00
2017,10,10,02,51,0.00
2017,10,10,02,52,0.00
2017,10,10,02,53,0.00
2017,10,10,02,54,0.00
2017,10,10,02,55,0.00
2017,10,10,02,56,0.00
2017,10,10,02,57,0.00
2017,10,10,02,58,0.00
2017,10,10,02,59,0.00
2017,10,10,03,00,0.00
2017,10,10,03,01,0.00
2017,10,10,03,02,0.00
2017,10,10,03,03,0.00
2017,10,10,03,04,0.00
2017,10,10,03,05,0.00
2017,10,10,03,06,0.00
2017,10,10,03,07,0.00
2017,10,10,03,08,0.00
2017,10,10,03,09,0.00
2017,10,10,03,10,0.00
2017,10,10,03,11,0.00
2017,10,10,03,12,0.00
2017,10,10,03,13,0.00
2017,10,10,03,14,0.00
2017,10,10,03,15,0.00
2017,10,10,03,16,0.00
2017,10,10,03,17,0.00
2017,10,10,03,18,0.00
2017,10,10,03,19,0.00
2017,10,10,03,20,0.00
2017,10,10,03,21,0.00
2017,10,10,03,22,0.00
2017,10,10,03,23,0.00
2017,10,10,03,24,0.00
2017,10,10,03,25,0.00
2017,10,10,03,26,0.00
2017,10,10,03,27,0.00
2017,10,10,03,28,0.00
2017,10,10,03,29,0.00
2017,10,10,03,30,0.00
2017,10,10,03,31,0.00
2017,10,10,03,32,0.00
2017,10,10,03,33,0.00
2017,10,10,03,34,0.00
2017,10,10,03,35,0.00
2017,10,10,03,36,0.00
2017,10,10,03,37,0.00
2017,10,10,03,38,0.00
2017,10,10,03,39,0.00
2017,10,10,03,40,0.00
2017,10,10,03,41,0.00
2017,10,10,03,42,0.00
2017,10,10,03,43,0.00
2017,10,10,03,44,0.00
2017,10,10,03,45,0.00
2017,10,10,03,46,0.00
2017,10,10,03,47,0.00
2017,10,10,03,48,0.00
2017,10,10,03,49,0.00
2017,10,10,03,50,0.00
2017,10,10,03,51,0.00
2017,10,10,03,52,0.00
2017,10,10,03,53,0.00
2017,10,10,03,54,0.00
2017,10,10,03,55,0.00
2017,10,10,03,56,0.00
2017,10,10,03,57,0.00
2017,10,10,03,58,0.00
2017,10,10,03,59,0.00
2017,10,10,04,00,0.00
2017,10,10,04,01,0.00
2017,10,10,04,02,0.00
2017,10,10,04,03,0.00
2017,10,10,04,04,0.00
2017,10,10,04,05,0.00
2017,10,10,04,06,0.00
2017,10,10,04,07,0.00
2017,10,10,04,08,0.00
2017,10,10,04,09,0.00
2017,10,10,04,10,0.00
2017,10,10,04,11,0.00
2017,10,10,04,12,0.00
2017,10,10,04,13,0.00
2017,10,10,04,14,0.00
2017,10,10,04,15,0.00
2017,10,10,04,16,0.00
2017,10,10,04,17,0.00
2017,10,10,04,18,0.00
2017,10,10,04,19,0.00
2017,10,10,04,20,0.00
2017,10,10,04,21,0.00
2017,10,10,04,22,0.00
2017,10,10,04,23,0.00
2017,10,10,04,24,0.00
2017,10,10,04,25,0.00
2017,10,10,04,26,0.00
2017,10,10,04,27,0.00
2017,10,10,04,28,0.00
2017,10,10,04,29,0.00
2017,10,10,04,30,0.00
2017,10,10,04,31,0.00
2017,10,10,04,32,0.00
2017,10,10,04,33,0.00
2017,10,10,04,34,0.00
2017,10,10,04,35,0.00
2017,10,10,04,36,0.00
2017,10,10,04,37,0.00
2017,10,10,04,38,0.00
2017,10,10,04,39,0.00
2017,10,10,04,40,0.00
2017,10,10,04,41,0.00
2017,10,10,04,42,0.00
2017,10,10,04,43,0.00
2017,10,10,04,44,0.00
2017,10,10,04,45,0.00
2017,10,10,04,46,0.00
2017,10,10,04,47,0.00
2017,10,10,04,48,0.00
2017,10,10,04,49,0.00
2017,10,10,04,50,0.00
2017,10,10,04,51,0.00
2017,10,10,04,52,0.00
2017,10,10,04,53,0.00
2017,10,10,04,54,0.00
2017,10,10,04,55,0.00
2017,10,10,04,56,0.00
2017,10,10,04,57,0.00
2017,10,10,04,58,0.00
2017,10,10,04,59,0.00
2017,10,10,05,00,0.00
2017,10,10,05,01,0.00
2017,10,10,05,02,0.00
2017,10,10,05,03,0.00
2017,10,10,05,04,0.00
2017,10,10,05,05,0.00
2017,10,10,05,06,0.00
2017,10,10,05,07,0.00
2017,10,10,05,08,0.00
2017,10,10,05,09,0.00
2017,10,10,05,10,0.00
2017,10,10,05,11,0.00
2017,10,10,05,12,0.00
2017,10,10,05,13,0.00
2017,10,10,05,14,0.00
2017,10,10,05,15,0.00
2017,10,10,05,16,0.00
2017,10,10,05,17,0.00
2017,10,10,05,18,0.00
2017,10,10,05,19,0.00
2017,10,10,05,20,0.00
2017,10,10,05,21,0.00
2017,10,10,05,22,0.00
2017,10,10,05,23,0.00
2017,10,10,05,24,0.00
2017,10,10,05,25,0.00
2017,10,10,05,26,0.00
2017,10,10,05,27,0.00
2017,10,10,05,28,0.00
2017,10,10,05,29,0.00
2017,10,10,05,30,0.00
2017,10,10,05,31,0.00
2017,10,10,05,32,0.00
2017,10,10,05,33,0.00
2017,10,10,05,34,0.00
2017,10,10,05,35,0.00
2017,10,10,05,36,0.00
2017,10,10,05,37,0.00
2017,10,10,05,38,0.00
2017,10,10,05,39,0.00
2017,10,10,05,40,0.00
2017,10,10,05,41,0.00
2017,10,10,05,42,0.00
2017,10,10,05,43,0.00
2017,10,10,05,44,0.00
2017,10,10,05,45,0.00
2017,10,10,05,46,0.00
2017,10,10,05,47,0.00
2017,10,10,05,48,0.00
2017,10,10,05,49,0.00
2017,10,10,05,50,0.00
2017,10,10,05,51,0.00
2017,10,10,05,52,0.00
2017,10,10,05,53,0.00
2017,10,10,05,54,0.00
2017,10,10,05,55,0.00
2017,10,10,05,56,0.00
2017,10,10,05,57,0.00
2017,10,10,05,58,0.00
2017,10,10,05,59,0.00
2017,10,10,06,00,0.00
2017,10,10,06,01,0.00
2017,10,10,06,02,0.00
2017,10,10,06,03,0.00
2017,10,10,06,04,0.00
2017,10,10,06,05,0.00
2017,10,10,06,06,0.00
2017,10,10,06,07,0.00
2017,10,10,06,08,0.00
2017,10,10,06,09,0.00
2017,10,10,06,10,0.00
2017,10,10,06,11,0.00
2017,10,10,06,12,0.00
2017,10,10,06,13,0.00
2017,10,10,06,14,0.00
2017,10,10,06,15,0.00
2017,10,10,06,16,0.00
2017,10,10,06,17,0.00
2017,10,10,06,18,0.00
2017,10,10,06,19,0.00
2017,10,10,06,20,0.00
2017,10,10,06,21,0.00
2017,10,10,06,22,0.00
2017,10,10,06,23,0.00
2017,10,10,06,24,0.00
2017,10,10,06,25,0.00
2017,10,10,06,26,0.00
2017,10,10,06,27,0.00
2017,10,10,06,28,0.00
2017,10,10,06,29,0.00
2017,10,10,06,30,0.00
2017,10,10,06,31,0.00
2017,10,10,06,32,0.00
2017,10,10,06,33,0.00
2017,10,10,06,34,0.00
2017,10,10,06,35,0.00
2017,10,10,06,36,0.00
2017,10,10,06,37,0.00
2017,10,10,06,38,0.00
2017,10,10,06,39,0.00
2017,10,10,06,40,0.00
2017,10,10,06,41,0.00
2017,10,10,06,42,0.00
2017,10,10,06,43,0.00
2017,10,10,06,44,0.00
2017,10,10,06,45,0.00
2017,10,10,06,46,0.00
2017,10,10,06,47,0.00
2017,10,10,06,48,0.00
2017,10,10,06,49,0.00
2017,10,10,06,50,0.00
2017,10,10,06,51,0.00
2017,10,10,06,52,0.00
2017,10,10,06,53,0.00
2017,10,10,06,54,0.00
2017,10,10,06,55,0.00
2017,10,10,06,56,0.00
2017,10,10,06,57,0.00
2017,10,10,06,58,0.00
2017,10,10,06,59,0.00
2017,10,10,07,00,0.00
2017,10,10,07,01,0.00
2017,10,10,07,02,0.00
2017,10,10,07,03,0.00
2017,10,10,07,04,0.00
2017,10,10,07,05,0.00
2017,10,10,07,06,0.00
2017,10,10,07,07,0.00
2017,10,10,07,08,0.00
2017,10,10,07,09,0.00
2017,10,10,07,10,0.00
2017,10,10,07,11,0.00
2017,10,10,07,12,0.00
2017,10,10,07,13,0.00
2017,10,10,07,14,0.00
2017,10,10,07,15,0.00
2017,10,10,07,16,0.00
2017,10,10,07,17,0.00
2017,10,10,07,18,0.00
2017,10,10,07,19,0.00
2017,10,10,07,20,0.00
2017,10,10,07,21,0.00
2017,10,10,07,22,0.00
2017,10,10,07,23,0.00
2017,10,10,07,24,0.00
2017,10,10,07,25,0.00
2017,10,10,07,26,0.00
2017,10,10,07,27,0.00
2017,10,10,07,28,0.00
2017,10,10,07,29,0.00
2017,10,10,07,30,0.00
2017,10,10,07,31,0.00
2017,10,10,07,32,0.00
2017,10,10,07,33,0.00
2017,10,10,07,34,0.00
2017,10,10,07,35,0.00
2017,10,10,07,36,0.00
2017,10,10,07,37,0.00
2017,10,10,07,38,0.00
2017,10,10,07,39,0.00
2017,10,10,07,40,0.00
2017,10,10,07,41,0.00
2017,10,10,07,42,0.00
2017,10,10,07,43,0.00
2017,10,10,07,44,0.00
2017,10,10,07,45,0.00
2017,10,10,07,46,0.00
2017,10,10,07,47,0.00
2017,10,10,07,48,1.20
2017,10,10,07,49,5.00
2017,10,10,07,50,5.00
2017,10,10,07,51,5.00
2017,10,10,07,52,5.00
2017,10,10,07,53,5.00
2017,10,10,07,54,5.00
2017,10,10,07,55,5.60
2017,10,10,07,56,7.00
2017,10,10,07,57,7.00
2017,10,10,07,58,7.00
2017,10,10,07,59,7.00
2017,10,10,08,00,7.60
2017,10,10,08,01,9.00
2017,10,10,08,02,9.00
2017,10,10,08,03,9.00
2017,10,10,08,04,9.00
2017,10,10,08,05,9.00
2017,10,10,08,06,9.00
2017,10,10,08,07,9.00
2017,10,10,08,08,9.00
2017,10,10,08,09,9.00
2017,10,10,08,10,9.00
2017,10,10,08,11,8.40
2017,10,10,08,12,7.00
2017,10,10,08,13,7.00
2017,10,10,08,14,6.40
2017,10,10,08,15,5.00
2017,10,10,08,16,5.00
2017,10,10,08,17,5.00
2017,10,10,08,18,5.00
2017,10,10,08,19,5.00
2017,10,10,08,20,5.00
2017,10,10,08,21,3.50
2017,10,10,08,22,0.00
2017,10,10,08,23,1.50
2017,10,10,08,24,5.00
2017,10,10,08,25,3.50
2017,10,10,08,26,0.00
2017,10,10,08,27,0.00
2017,10,10,08,28,0.00
2017,10,10,08,29,0.00
2017,10,10,08,30,1.50
2017,10,10,08,31,5.00
2017,10,10,08,32,5.00
2017,10,10,08,33,5.00
2017,10,10,08,34,5.60
2017,10,10,08,35,7.60
2017,10,10,08,36,9.60
2017,10,10,08,37,11.30
2017,10,10,08,38,13.20
2017,10,10,08,39,16.00
2017,10,10,08,40,16.00
2017,10,10,08,41,16.00
2017,10,10,08,42,16.00
2017,10,10,08,43,16.90
2017,10,10,08,44,18.70
2017,10,10,08,45,17.40
2017,10,10,08,46,16.00
2017,10,10,08,47,16.00
2017,10,10,08,48,15.40
2017,10,10,08,49,14.00
2017,10,10,08,50,14.00
2017,10,10,08,51,14.50
2017,10,10,08,52,16.00
2017,10,10,08,53,16.00
2017,10,10,08,54,16.00
2017,10,10,08,55,16.90
2017,10,10,08,56,19.00
2017,10,10,08,57,19.60
2017,10,10,08,58,20.40
2017,10,10,08,59,19.00
2017,10,10,09,00,18.10
2017,10,10,09,01,16.00
2017,10,10,09,02,15.40
2017,10,10,09,03,13.40
2017,10,10,09,04,12.60
2017,10,10,09,05,15.10
2017,10,10,09,06,18.00
2017,10,10,09,07,18.00
2017,10,10,09,08,18.90
2017,10,10,09,09,20.40
2017,10,10,09,10,19.00
2017,10,10,09,11,18.10
2017,10,10,09,12,14.80
2017,10,10,09,13,11.70
2017,10,10,09,14,11.30
2017,10,10,09,15,13.20
2017,10,10,09,16,17.50
2017,10,10,09,17,24.60
2017,10,10,09,18,33.00
2017,10,10,09,19,36.30
2017,10,10,09,20,44.00
2017,10,10,09,21,44.90
2017,10,10,09,22,46.70
2017,10,10,09,23,44.00
2017,10,10,09,24,40.50
2017,10,10,09,25,41.30
2017,10,10,09,26,35.60
2017,10,10,09,27,35.80
2017,10,10,09,28,32.10
2017,10,10,09,29,31.50
2017,10,10,09,30,34.10
2017,10,10,09,31,31.40
2017,10,10,09,32,29.40
2017,10,10,09,33,28.00
2017,10,10,09,34,27.40
2017,10,10,09,35,26.60
2017,10,10,09,36,31.30
2017,10,10,09,37,38.50
2017,10,10,09,38,38.80
2017,10,10,09,39,44.90
2017,10,10,09,40,47.50
2017,10,10,09,41,50.10
2017,10,10,09,42,53.90
2017,10,10,09,43,56.60
2017,10,10,09,44,55.90
2017,10,10,09,45,48.90
2017,10,10,09,46,44.00
2017,10,10,09,47,44.60
2017,10,10,09,48,43.30
2017,10,10,09,49,34.90
2017,10,10,09,50,28.50
2017,10,10,09,51,25.90
2017,10,10,09,52,28.00
2017,10,10,09,53,29.30
2017,10,10,09,54,35.80
2017,10,10,09,55,44.00
2017,10,10,09,56,45.30
2017,10,10,09,57,50.40
2017,10,10,09,58,55.20
2017,10,10,09,59,59.50
2017,10,10,10,00,65.10
2017,10,10,10,01,74.80
2017,10,10,10,02,97.10
2017,10,10,10,03,137.40
2017,10,10,10,04,159.30
2017,10,10,10,05,125.10
2017,10,10,10,06,109.60
2017,10,10,10,07,113.70
2017,10,10,10,08,114.70
2017,10,10,10,09,97.40
2017,10,10,10,10,89.20
2017,10,10,10,11,82.60
2017,10,10,10,12,80.50
2017,10,10,10,13,93.00
2017,10,10,10,14,122.40
2017,10,10,10,15,144.70
2017,10,10,10,16,153.10
2017,10,10,10,17,153.80
2017,10,10,10,18,155.10
2017,10,10,10,19,191.50
2017,10,10,10,20,216.00
2017,10,10,10,21,216.00
2017,10,10,10,22,216.00
2017,10,10,10,23,193.80
2017,10,10,10,24,146.80
2017,10,10,10,25,152.50
2017,10,10,10,26,144.10
2017,10,10,10,27,159.90
2017,10,10,10,28,147.50
2017,10,10,10,29,124.90
2017,10,10,10,30,113.00
2017,10,10,10,31,118.10
2017,10,10,10,32,135.70
2017,10,10,10,33,148.70
2017,10,10,10,34,144.70
2017,10,10,10,35,138.50
2017,10,10,10,36,142.00
2017,10,10,10,37,140.50
2017,10,10,10,38,136.10
2017,10,10,10,39,130.10
2017,10,10,10,40,129.10
2017,10,10,10,41,153.50
2017,10,10,10,42,165.30
2017,10,10,10,43,143.10
2017,10,10,10,44,108.50
2017,10,10,10,45,104.60
2017,10,10,10,46,134.70
2017,10,10,10,47,199.00
2017,10,10,10,48,253.10
2017,10,10,10,49,216.00
2017,10,10,10,50,269.40
2017,10,10,10,51,411.40
2017,10,10,10,52,452.00
2017,10,10,10,53,450.80
2017,10,10,10,54,445.90
2017,10,10,10,55,441.00
2017,10,10,10,56,441.00
2017,10,10,10,57,442.80
2017,10,10,10,58,441.40
2017,10,10,10,59,425.00
2017,10,10,11,00,425.00
2017,10,10,11,01,425.00
2017,10,10,11,02,377.60
2017,10,10,11,03,250.20
2017,10,10,11,04,199.00
2017,10,10,11,05,168.30
2017,10,10,11,06,173.40
2017,10,10,11,07,216.50
2017,10,10,11,08,255.00
2017,10,10,11,09,255.00
2017,10,10,11,10,255.00
2017,10,10,11,11,223.20
2017,10,10,11,12,137.80
2017,10,10,11,13,157.30
2017,10,10,11,14,188.50
2017,10,10,11,15,195.60
2017,10,10,11,16,142.40
2017,10,10,11,17,107.00
2017,10,10,11,18,90.00
2017,10,10,11,19,80.30
2017,10,10,11,20,71.30
2017,10,10,11,21,65.60
2017,10,10,11,22,70.00
2017,10,10,11,23,84.50
2017,10,10,11,24,102.00
2017,10,10,11,25,102.00
2017,10,10,11,26,261.90
2017,10,10,11,27,635.00
2017,10,10,11,28,503.90
2017,10,10,11,29,137.60
2017,10,10,11,30,139.00
2017,10,10,11,31,139.00
2017,10,10,11,32,195.40
2017,10,10,11,33,322.20
2017,10,10,11,34,283.10
2017,10,10,11,35,198.50
2017,10,10,11,36,149.70
2017,10,10,11,37,167.50
2017,10,10,11,38,227.00
2017,10,10,11,39,227.00
2017,10,10,11,40,227.00
2017,10,10,11,41,227.00
2017,10,10,11,42,319.10
2017,10,10,11,43,536.90
2017,10,10,11,44,529.20
2017,10,10,11,45,507.40
2017,10,10,11,46,571.00
2017,10,10,11,47,571.00
2017,10,10,11,48,571.00
2017,10,10,11,49,571.00
2017,10,10,11,50,571.00
2017,10,10,11,51,571.00
2017,10,10,11,52,494.50
2017,10,10,11,53,316.00
2017,10,10,11,54,316.00
2017,10,10,11,55,316.00
2017,10,10,11,56,316.00
2017,10,10,11,57,384.70
2017,10,10,11,58,548.20
2017,10,10,11,59,559.00
2017,10,10,12,00,565.20
2017,10,10,12,01,568.90
2017,10,10,12,02,571.00
2017,10,10,12,03,573.70
2017,10,10,12,04,580.00
2017,10,10,12,05,580.00
2017,10,10,12,06,575.80
2017,10,10,12,07,562.40
2017,10,10,12,08,559.70
2017,10,10,12,09,582.60
2017,10,10,12,10,627.20
2017,10,10,12,11,692.50
2017,10,10,12,12,724.00
2017,10,10,12,13,724.00
2017,10,10,12,14,724.00
2017,10,10,12,15,602.90
2017,10,10,12,16,257.20
2017,10,10,12,17,237.00
2017,10,10,12,18,382.50
2017,10,10,12,19,722.00
2017,10,10,12,20,570.20
2017,10,10,12,21,224.40
2017,10,10,12,22,247.30
2017,10,10,12,23,255.00
2017,10,10,12,24,306.00
2017,10,10,12,25,425.00
2017,10,10,12,26,474.20
2017,10,10,12,27,589.90
2017,10,10,12,28,593.80
2017,10,10,12,29,597.40
2017,10,10,12,30,596.00
2017,10,10,12,31,596.00
2017,10,10,12,32,596.00
2017,10,10,12,33,596.00
2017,10,10,12,34,596.00
2017,10,10,12,35,586.40
2017,10,10,12,36,580.50
2017,10,10,12,37,625.90
2017,10,10,12,38,642.00
2017,10,10,12,39,642.00
2017,10,10,12,40,509.40
2017,10,10,12,41,208.70
2017,10,10,12,42,229.00
2017,10,10,12,43,229.00
2017,10,10,12,44,229.00
2017,10,10,12,45,229.00
2017,10,10,12,46,229.00
2017,10,10,12,47,278.10
2017,10,10,12,48,401.00
2017,10,10,12,49,461.00
2017,10,10,12,50,601.00
2017,10,10,12,51,601.00
2017,10,10,12,52,642.70
2017,10,10,12,53,722.00
2017,10,10,12,54,675.20
2017,10,10,12,55,655.30
2017,10,10,12,56,628.10
2017,10,10,12,57,605.70
2017,10,10,12,58,589.20
2017,10,10,12,59,583.50
2017,10,10,13,00,579.10
2017,10,10,13,01,577.30
2017,10,10,13,02,583.70
2017,10,10,13,03,609.40
2017,10,10,13,04,646.30
2017,10,10,13,05,673.60
2017,10,10,13,06,670.00
2017,10,10,13,07,670.00
2017,10,10,13,08,670.90
2017,10,10,13,09,672.10
2017,10,10,13,10,661.00
2017,10,10,13,11,640.00
2017,10,10,13,12,628.30
2017,10,10,13,13,598.90
2017,10,10,13,14,595.50
2017,10,10,13,15,592.70
2017,10,10,13,16,576.50
2017,10,10,13,17,571.70
2017,10,10,13,18,568.60
2017,10,10,13,19,570.90
2017,10,10,13,20,573.00
2017,10,10,13,21,575.10
2017,10,10,13,22,580.00
2017,10,10,13,23,580.00
2017,10,10,13,24,583.60
2017,10,10,13,25,590.50
2017,10,10,13,26,585.50
2017,10,10,13,27,591.90
2017,10,10,13,28,614.10
2017,10,10,13,29,609.30
2017,10,10,13,30,603.90
2017,10,10,13,31,603.00
2017,10,10,13,32,596.00
2017,10,10,13,33,600.00
2017,10,10,13,34,619.70
2017,10,10,13,35,636.40
2017,10,10,13,36,624.10
2017,10,10,13,37,650.40
2017,10,10,13,38,635.00
2017,10,10,13,39,635.00
2017,10,10,13,40,617.60
2017,10,10,13,41,574.90
2017,10,10,13,42,570.00
2017,10,10,13,43,570.00
2017,10,10,13,44,570.90
2017,10,10,13,45,573.00
2017,10,10,13,46,573.00
2017,10,10,13,47,573.00
2017,10,10,13,48,572.20
2017,10,10,13,49,568.00
2017,10,10,13,50,561.40
2017,10,10,13,51,557.60
2017,10,10,13,52,557.80
2017,10,10,13,53,555.00
2017,10,10,13,54,555.00
2017,10,10,13,55,554.70
2017,10,10,13,56,554.00
2017,10,10,13,57,554.00
2017,10,10,13,58,553.40
2017,10,10,13,59,550.80
2017,10,10,14,00,548.00
2017,10,10,14,01,548.00
2017,10,10,14,02,548.60
2017,10,10,14,03,549.40
2017,10,10,14,04,548.00
2017,10,10,14,05,547.70
2017,10,10,14,06,546.50
2017,10,10,14,07,545.60
2017,10,10,14,08,546.40
2017,10,10,14,09,544.40
2017,10,10,14,10,543.00
2017,10,10,14,11,542.40
2017,10,10,14,12,541.60
2017,10,10,14,13,542.10
2017,10,10,14,14,540.00
2017,10,10,14,15,540.00
2017,10,10,14,16,540.00
2017,10,10,14,17,538.20
2017,10,10,14,18,533.70
2017,10,10,14,19,533.00
2017,10,10,14,20,533.00
2017,10,10,14,21,531.90
2017,10,10,14,22,528.50
2017,10,10,14,23,526.10
2017,10,10,14,24,524.00
2017,10,10,14,25,523.40
2017,10,10,14,26,522.00
2017,10,10,14,27,521.40
2017,10,10,14,28,520.00
2017,10,10,14,29,519.70
2017,10,10,14,30,518.40
2017,10,10,14,31,516.40
2017,10,10,14,32,514.10
2017,10,10,14,33,512.00
2017,10,10,14,34,512.30
2017,10,10,14,35,513.00
2017,10,10,14,36,512.70
2017,10,10,14,37,511.40
2017,10,10,14,38,510.00
2017,10,10,14,39,509.40
2017,10,10,14,40,508.00
2017,10,10,14,41,507.40
2017,10,10,14,42,506.00
2017,10,10,14,43,505.10
2017,10,10,14,44,501.80
2017,10,10,14,45,499.00
2017,10,10,14,46,498.40
2017,10,10,14,47,496.10
2017,10,10,14,48,494.00
2017,10,10,14,49,493.40
2017,10,10,14,50,491.40
2017,10,10,14,51,490.00
2017,10,10,14,52,490.00
2017,10,10,14,53,489.70
2017,10,10,14,54,488.40
2017,10,10,14,55,486.40
2017,10,10,14,56,484.40
2017,10,10,14,57,483.00
2017,10,10,14,58,482.10
2017,10,10,14,59,480.60
2017,10,10,15,00,480.80
2017,10,10,15,01,478.60
2017,10,10,15,02,478.80
2017,10,10,15,03,476.00
2017,10,10,15,04,475.70
2017,10,10,15,05,475.00
2017,10,10,15,06,473.80
2017,10,10,15,07,470.40
2017,10,10,15,08,468.70
2017,10,10,15,09,468.00
2017,10,10,15,10,466.80
2017,10,10,15,11,463.40
2017,10,10,15,12,461.70
2017,10,10,15,13,460.40
2017,10,10,15,14,458.40
2017,10,10,15,15,455.50
2017,10,10,15,16,452.60
2017,10,10,15,17,454.00
2017,10,10,15,18,454.00
2017,10,10,15,19,453.40
2017,10,10,15,20,450.80
2017,10,10,15,21,446.50
2017,10,10,15,22,442.40
2017,10,10,15,23,440.50
2017,10,10,15,24,438.20
2017,10,10,15,25,435.40
2017,10,10,15,26,433.40
2017,10,10,15,27,431.70
2017,10,10,15,28,430.40
2017,10,10,15,29,428.40
2017,10,10,15,30,427.00
2017,10,10,15,31,427.00
2017,10,10,15,32,426.10
2017,10,10,15,33,423.40
2017,10,10,15,34,420.50
2017,10,10,15,35,417.00
2017,10,10,15,36,416.40
2017,10,10,15,37,413.80
2017,10,10,15,38,410.10
2017,10,10,15,39,408.50
2017,10,10,15,40,409.00
2017,10,10,15,41,405.40
2017,10,10,15,42,403.10
2017,10,10,15,43,401.00
2017,10,10,15,44,399.80
2017,10,10,15,45,397.00
2017,10,10,15,46,396.70
2017,10,10,15,47,394.20
2017,10,10,15,48,389.40
2017,10,10,15,49,386.50
2017,10,10,15,50,383.00
2017,10,10,15,51,383.00
2017,10,10,15,52,382.40
2017,10,10,15,53,380.10
2017,10,10,15,54,378.00
2017,10,10,15,55,377.40
2017,10,10,15,56,375.10
2017,10,10,15,57,371.80
2017,10,10,15,58,368.40
2017,10,10,15,59,367.00
2017,10,10,16,00,366.70
2017,10,10,16,01,365.40
2017,10,10,16,02,362.80
2017,10,10,16,03,360.00
2017,10,10,16,04,359.70
2017,10,10,16,05,357.20
2017,10,10,16,06,352.10
2017,10,10,16,07,348.80
2017,10,10,16,08,345.10
2017,10,10,16,09,343.00
2017,10,10,16,10,342.40
2017,10,10,16,11,340.40
2017,10,10,16,12,338.70
2017,10,10,16,13,336.30
2017,10,10,16,14,332.00
2017,10,10,16,15,331.10
2017,10,10,16,16,327.20
2017,10,10,16,17,323.00
2017,10,10,16,18,322.70
2017,10,10,16,19,320.20
2017,10,10,16,20,315.70
2017,10,10,16,21,314.40
2017,10,10,16,22,312.40
2017,10,10,16,23,310.40
2017,10,10,16,24,307.50
2017,10,10,16,25,303.50
2017,10,10,16,26,301.20
2017,10,10,16,27,298.50
2017,10,10,16,28,297.60
2017,10,10,16,29,297.80
2017,10,10,16,30,294.70
2017,10,10,16,31,294.00
2017,10,10,16,32,292.80
2017,10,10,16,33,289.40
2017,10,10,16,34,286.50
2017,10,10,16,35,283.00
2017,10,10,16,36,281.50
2017,10,10,16,37,276.80
2017,10,10,16,38,273.40
2017,10,10,16,39,271.70
2017,10,10,16,40,270.40
2017,10,10,16,41,267.80
2017,10,10,16,42,264.70
2017,10,10,16,43,263.50
2017,10,10,16,44,262.00
2017,10,10,16,45,260.80
2017,10,10,16,46,256.50
2017,10,10,16,47,252.40
2017,10,10,16,48,250.10
2017,10,10,16,49,246.80
2017,10,10,16,50,243.10
2017,10,10,16,51,239.80
2017,10,10,16,52,237.00
2017,10,10,16,53,237.00
2017,10,10,16,54,235.20
2017,10,10,16,55,229.70
2017,10,10,16,56,228.40
2017,10,10,16,57,225.80
2017,10,10,16,58,222.20
2017,10,10,16,59,219.40
2017,10,10,17,00,216.80
2017,10,10,17,01,213.10
2017,10,10,17,02,210.40
2017,10,10,17,03,208.10
2017,10,10,17,04,204.80
2017,10,10,17,05,201.40
2017,10,10,17,06,199.70
2017,10,10,17,07,197.80
2017,10,10,17,08,194.10
2017,10,10,17,09,185.10
2017,10,10,17,10,174.10
2017,10,10,17,11,185.10
2017,10,10,17,12,182.50
2017,10,10,17,13,179.80
2017,10,10,17,14,176.60
2017,10,10,17,15,175.90
2017,10,10,17,16,171.30
2017,10,10,17,17,171.70
2017,10,10,17,18,170.40
2017,10,10,17,19,167.80
2017,10,10,17,20,164.40
2017,10,10,17,21,162.70
2017,10,10,17,22,160.80
2017,10,10,17,23,157.40